York, NE

1:58 AM CST on December 09, 2019 (GMT -0600)
York Municipal

Weather History for KJYR - November, 2019

Change the Weather History Date:

Wednesday, November 13, 2019

  Actual Average Record
Temperature  
Mean Temperature 36 °F -  
Max Temperature 48 °F 49 °F 72 °F (1990)
Min Temperature 23 °F 27 °F 0 °F (1986)
Degree Days  
Heating Degree Days 30    
Moisture  
Dew Point 23 °F    
Average Humidity 65    
Maximum Humidity 81    
Minimum Humidity 44    
Precipitation  
Precipitation 0.00 in - - ()
Sea Level Pressure  
Sea Level Pressure 29.97 in    
Wind  
Wind Speed 11 mph (WNW)    
Max Wind Speed 16 mph    
Max Gust Speed 23 mph    
Visibility 10 miles    
Events      
Averages and records for this station are not official NWS values.
T = Trace of Precipitation, MM = Missing Value Source: NWS Daily Summary

Daily Weather History Graph

Daily Weather History Graph

Search for Another Location

Airport or City:

Astronomy

Nov. 13, 2019 Rise Set
Actual Time 7:15 AM CST 5:13 PM CST
Civil Twilight 6:45 AM CST 5:43 PM CST
Nautical Twilight 6:12 AM CST 6:16 PM CST
Astronomical Twilight 5:40 AM CST 6:48 PM CST
Moon 6:17 PM CST (11/13) 8:09 AM CST (11/13)
Length of Visible Light 10h 57m
Length of Day
9h 58m
Full, 99% of the Moon is Illuminated
Nov 13
Full
Nov 19
Last Quarter
Nov 26
New
Dec 4
First Quarter
Dec 11
Full

Hourly Weather History & Observations

Time (CST) Temp. Windchill Dew Point Humidity Pressure Visibility Wind Dir Wind Speed Gust Speed Precip Events Conditions
12:15 AM 26.6 °F 14.3 °F 10.4 °F 51% 29.94 in 10.0 mi SSW 16.1 mph - N/A   Clear
12:35 AM 24.8 °F 12.9 °F 10.4 °F 54% 29.94 in 10.0 mi SSW 13.8 mph - N/A   Clear
12:55 AM 24.8 °F 13.4 °F 10.4 °F 54% 29.93 in 10.0 mi SSW 12.7 mph - N/A   Clear
1:15 AM 24.8 °F 13.4 °F 12.2 °F 59% 29.92 in 10.0 mi SSW 12.7 mph - N/A   Clear
1:35 AM 24.8 °F 13.4 °F 10.4 °F 54% 29.91 in 10.0 mi SSW 12.7 mph - N/A   Clear
1:55 AM 24.8 °F 12.9 °F 12.2 °F 59% 29.90 in 10.0 mi SSW 13.8 mph - N/A   Clear
2:15 AM 23.0 °F 11.1 °F 12.2 °F 63% 29.89 in 10.0 mi South 12.7 mph - N/A   Clear
2:35 AM 23.0 °F 11.1 °F 12.2 °F 63% 29.89 in 10.0 mi South 12.7 mph - N/A   Clear
2:55 AM 23.0 °F 10.6 °F 12.2 °F 63% 29.87 in 10.0 mi South 13.8 mph - N/A   Clear
3:15 AM 23.0 °F 10.6 °F 12.2 °F 63% 29.86 in 10.0 mi South 13.8 mph - N/A   Clear
3:35 AM 23.0 °F 11.7 °F 12.2 °F 63% 29.85 in 10.0 mi South 11.5 mph - N/A   Clear
3:55 AM 23.0 °F 13.1 °F 12.2 °F 63% 29.86 in 10.0 mi SSW 9.2 mph - N/A   Clear
4:35 AM 24.8 °F 15.3 °F 14.0 °F 64% 29.85 in 10.0 mi SSW 9.2 mph - N/A   Clear
4:55 AM 24.8 °F 15.3 °F 14.0 °F 64% 29.86 in 10.0 mi SSW 9.2 mph - N/A   Partly Cloudy
5:15 AM 24.8 °F 15.3 °F 14.0 °F 64% 29.87 in 10.0 mi SSW 9.2 mph - N/A   Mostly Cloudy
5:35 AM 26.6 °F 18.2 °F 14.0 °F 59% 29.86 in 10.0 mi SSW 8.1 mph - N/A   Overcast
5:55 AM 26.6 °F 17.5 °F 14.0 °F 59% 29.85 in 10.0 mi SSW 9.2 mph - N/A   Mostly Cloudy
6:15 AM 26.6 °F 18.2 °F 14.0 °F 59% 29.85 in 10.0 mi SSW 8.1 mph - N/A   Overcast
6:35 AM 26.6 °F 17.5 °F 14.0 °F 59% 29.86 in 10.0 mi SSW 9.2 mph - N/A   Mostly Cloudy
6:55 AM 26.6 °F 19.1 °F 14.0 °F 59% 29.87 in 10.0 mi SSW 6.9 mph - N/A   Partly Cloudy
7:15 AM 26.6 °F 20.0 °F 14.0 °F 59% 29.87 in 10.0 mi SSW 5.8 mph - N/A   Clear
7:35 AM 26.6 °F 19.1 °F 14.0 °F 59% 29.87 in 10.0 mi SSW 6.9 mph - N/A   Scattered Clouds
7:55 AM 26.6 °F 19.1 °F 14.0 °F 59% 29.90 in 10.0 mi SW 6.9 mph - N/A   Partly Cloudy
8:15 AM 28.4 °F 23.3 °F 15.8 °F 59% 29.91 in 10.0 mi SW 4.6 mph - N/A   Partly Cloudy
8:55 AM 28.4 °F 21.2 °F 15.8 °F 59% 29.90 in 10.0 mi SSW 6.9 mph - N/A   Clear
9:15 AM 28.4 °F 20.4 °F 15.8 °F 59% 29.91 in 10.0 mi SW 8.1 mph - N/A   Clear
9:35 AM 32.0 °F 24.2 °F 15.8 °F 51% 29.92 in 10.0 mi WSW 9.2 mph - N/A   Clear
9:55 AM 32.0 °F 26.4 °F 15.8 °F 51% 29.91 in 10.0 mi SW 5.8 mph - N/A   Clear
10:15 AM 32.0 °F 24.8 °F 15.8 °F 51% 29.94 in 10.0 mi West 8.1 mph - N/A   Clear
10:35 AM 35.6 °F 28.0 °F 15.8 °F 44% 29.95 in 10.0 mi WNW 10.4 mph - N/A   Scattered Clouds
10:55 AM 35.6 °F 27.5 °F 17.6 °F 48% 29.95 in 10.0 mi NW 11.5 mph - N/A   Scattered Clouds
11:15 AM 39.2 °F 31.6 °F 19.4 °F 45% 29.95 in 10.0 mi NNW 12.7 mph - N/A   Mostly Cloudy
11:35 AM 41.0 °F 34.7 °F 21.2 °F 45% 29.95 in 10.0 mi NNW 10.4 mph - N/A   Overcast
11:55 AM 42.8 °F 37.0 °F 23.0 °F 46% 29.95 in 10.0 mi NNW 10.4 mph - N/A   Mostly Cloudy
12:15 PM 44.6 °F 39.7 °F 28.4 °F 53% 29.95 in 10.0 mi North 9.2 mph - N/A   Mostly Cloudy
12:35 PM 46.4 °F 40.7 °F 32.0 °F 57% 29.95 in 10.0 mi North 12.7 mph 19.6 mph N/A   Mostly Cloudy
12:55 PM 46.4 °F 41.1 °F 32.0 °F 57% 29.95 in 10.0 mi North 11.5 mph 20.7 mph N/A   Mostly Cloudy
1:15 PM 46.4 °F 40.7 °F 35.6 °F 66% 29.95 in 10.0 mi North 12.7 mph 19.6 mph N/A   Overcast
1:35 PM 48.2 °F - 35.6 °F 62% 29.95 in 10.0 mi North 12.7 mph - N/A   Mostly Cloudy
1:55 PM 48.2 °F - 35.6 °F 62% 29.95 in 10.0 mi North 11.5 mph 23.0 mph N/A   Overcast
2:15 PM 44.6 °F 37.8 °F 37.4 °F 76% 29.96 in 10.0 mi NNW 15.0 mph 20.7 mph N/A   Overcast
2:55 PM 44.6 °F 38.8 °F 35.6 °F 71% 29.97 in 10.0 mi North 11.5 mph 16.1 mph N/A   Overcast
3:15 PM 44.6 °F 40.2 °F 35.6 °F 71% 29.98 in 10.0 mi NNW 8.1 mph 16.1 mph N/A   Overcast
3:35 PM 42.8 °F 36.6 °F 35.6 °F 76% 29.99 in 10.0 mi North 11.5 mph - N/A   Overcast
3:55 PM 41.0 °F 33.5 °F 35.6 °F 81% 30.01 in 10.0 mi North 13.8 mph 18.4 mph N/A   Overcast
4:15 PM 41.0 °F 35.2 °F 35.6 °F 81% 30.02 in 10.0 mi North 9.2 mph - N/A   Overcast
4:35 PM 41.0 °F 37.1 °F 33.8 °F 76% 30.03 in 10.0 mi North 5.8 mph - N/A   Overcast
4:55 PM 41.0 °F 37.1 °F 33.8 °F 76% 30.04 in 10.0 mi North 5.8 mph - N/A   Overcast
5:15 PM 41.0 °F 36.4 °F 32.0 °F 70% 30.04 in 10.0 mi NNW 6.9 mph - N/A   Overcast
5:55 PM 41.0 °F 37.1 °F 32.0 °F 70% 30.05 in 10.0 mi NNW 5.8 mph - N/A   Overcast
6:35 PM 39.2 °F 35.9 °F 32.0 °F 75% 30.08 in 10.0 mi NW 4.6 mph - N/A   Overcast
6:55 PM 39.2 °F 34.2 °F 32.0 °F 75% 30.08 in 10.0 mi NW 6.9 mph - N/A   Overcast
7:15 PM 39.2 °F 34.2 °F 32.0 °F 75% 30.09 in 10.0 mi NW 6.9 mph - N/A   Overcast
7:35 PM 39.2 °F 35.0 °F 32.0 °F 75% 30.09 in 10.0 mi NW 5.8 mph - N/A   Overcast
7:55 PM 39.2 °F 32.5 °F 32.0 °F 75% 30.10 in 10.0 mi NNW 10.4 mph - N/A   Overcast
8:15 PM 39.2 °F 33.6 °F 32.0 °F 75% 30.10 in 10.0 mi NW 8.1 mph - N/A   Overcast
8:35 PM 39.2 °F 33.6 °F 32.0 °F 75% 30.11 in 10.0 mi NNW 8.1 mph - N/A   Overcast
8:55 PM 39.2 °F 34.2 °F 32.0 °F 75% 30.12 in 10.0 mi North 6.9 mph - N/A   Overcast
9:15 PM 39.2 °F 34.2 °F 32.0 °F 75% 30.12 in 10.0 mi North 6.9 mph - N/A   Overcast
9:55 PM 39.2 °F 35.0 °F 32.0 °F 75% 30.14 in 10.0 mi NNW 5.8 mph - N/A   Overcast
10:15 PM 39.2 °F 35.0 °F 32.0 °F 75% 30.14 in 10.0 mi NNW 5.8 mph - N/A   Overcast
10:35 PM 37.4 °F 32.8 °F 32.0 °F 81% 30.14 in 10.0 mi North 5.8 mph - N/A   Overcast
10:55 PM 37.4 °F 32.8 °F 32.0 °F 81% 30.15 in 10.0 mi North 5.8 mph - N/A   Overcast
11:15 PM 37.4 °F 32.8 °F 32.0 °F 81% 30.15 in 10.0 mi NNW 5.8 mph - N/A   Overcast
11:35 PM 37.4 °F 32.8 °F 32.0 °F 81% 30.16 in 10.0 mi North 5.8 mph - N/A   Overcast
11:55 PM 37.4 °F 31.4 °F 32.0 °F 81% 30.16 in 10.0 mi North 8.1 mph - N/A   Overcast